Terminal Aerodrome Forecast
Issued by NWS

Home | Current Version | Previous Version | Text Only | Print | Product List | Glossary On
Versions: 1 2 3 4 5 6 7 8 9 10 11 12 13 14 15 16
000
FTUS43 KPAH 271120
TAFCGI
TAF
KCGI 271120Z 2712/2812 35010KT P6SM SCT015 BKN035
      TEMPO 2712/2715 BKN015
     FM271500 36012KT P6SM BKN025
     FM271900 35011KT P6SM BKN035
     FM272200 36008KT P6SM SCT035
     FM280100 VRB03KT P6SM SKC
      TEMPO 2809/2812 5SM BR=

USA.gov is the U.S. government's official web portal to all federal, state and local government web resources and services.